Location: Laterina
(43.5167°N, 11.7167°E)
Time: 13:06:22
(UTC+00:00)

Cosmos 2026 Rocket - Pass Details

Date: 22 January 2021
Orbit: 940 x 1000 km, 82.9° (Epoch: 28 February)

Event Time Altitude Azimuth Distance (km) Brightness Sun altitude
Rises 16:49:37 0° 142° (SE) 3,604 6.8 -7.2°
Reaches altitude 10° 16:52:46 10° 126° (SE) 2,672 6.0 -7.7°
Maximum altitude 16:56:58 20° 82° (E) 2,069 5.1 -8.5°
Drops below altitude 10° 17:01:14 10° 38° (NE) 2,711 5.8 -9.2°
Sets 17:04:26 0° 22° (NNE) 3,674 6.6 -9.7°
